Погода Костанай

Погода Костанай : погода сейчас, прогноз погоды и архив. Всё, что Вы хотите узнать о погоде Костанай!

Хотите узнать прогноз погоды в Костанае? Тогда Вам сюда: Погода в Костанае

Поиск расширенной информации на нашем сайте:

Другие новости

Новости СМИ2

Главная страница сайта

Новости сайта

03.07.2017

Напоминаем, что на нашем специализированном сайте Метеоцентр.Азия вы можете получить высокодетализированные автоматические прогнозы погоды по пунктам России, СНГ и мира в авиационном формате (включающие направление и скорость ветра, видимость, явления погоды, количество и форму облачности, нижнюю и верхнюю границу облачности).


Погода Костанай - сегодня

Время (UTC), дата Ветер
(°,м/с) 
Видим.   Явления Облачность Т
(°С)
Тd
(°С)
f(%) Тe
(°С)
Pmin
(гПа)
dP
(гПа)
Po
(мм)
O2
(г/м3)
Тmin Tmax R s Состояние
почвы
06 20.09.17 180 (Ю) 20000 м    9/0 верхняя 
[Cc]
+25.8 +14 48 +33  1018.4  -0.7  751  274  +14.6         
09 20.09.17 270 (З) 20000 м  пыльный позёмок  9/4 1000 м верхняя 
[Cu Sc|Ci]
+29.6 +11.8 33 +33  1016.6  -1.6  750  270           
12 20.09.17 230 (ЮЗ) 20000 м  пыльный позёмок  3/0 средняя 
[Ac trans]
+29.3 +12.9 36 +35  1015.4  -1.2  749  270           
15 20.09.17 230 (ЮЗ) н/о    8/8 600 м 
[Sc]
+24.4 +12 46 +28  1015.2  -0.4  748  275    +30.6       
18 20.09.17 270 (З) н/о    3/3 600 м 
[Sc]
+20.4 +8.6 47 +20  1016.1  0.5  749  279    +30.6       
21 20.09.17 360 (С) н/о    ясно 
+15 +6.4 56 +16  1016.7  0.4  749  285           
00 21.09.17 360 (С) н/о    ясно 
+10.9 +5.3 68 +12  1018.5  1.4  750  290           
03 21.09.17 340 (С) 20000 м    4/0 средняя, верхняя 
[Ac lent|Ci fib]
+10.6 +6.1 74 +12  1019.5  751  290           
06 21.09.17 340 (С) 20000 м    6/0 средняя, верхняя 
[Ac cast|Ci fib]
+16.6 +8.9 60 +17  1019.5  0.4  751  284  +8.7         
09 21.09.17 320 (СЗ) 20000 м    6/3 1000 м верхняя 
[Cu med, cong|Ci fib]
+18.9 +7.6 48 +19  1018.7  -0.6  751  282           
12 21.09.17 320 (СЗ) 20000 м    6/6 1000 м 
[Cu med, cong]
+18.5 +6.2 45 +19  1019.3  0.5  751  282           
15 21.09.17 360 (С) н/о    9/9 600 м 
[Sc]
+15.6 +7.4 58 +16  1020.3  0.9  752  285    +20.5       
18 21.09.17 020 (С) н/о    3/3 600 м 
[Sc]
+11.6 +6.5 71 +12  1022.2  1.5  753  290    +20.5       
21 21.09.17 360 (С) н/о    ясно 
+8.1 +3.8 74 +8  1023.8  1.3  754  294           
00 22.09.17 360 (С) н/о    9/9 600 м 
[Sc]
+7 +3.2 77 +7  1025.1  1.2  755  296           
03 22.09.17 020 (С) 20000 м    9/9 600 м 
[Sc]
+7.3 +3.6 77 +7  1026.4  1.4  756  296           
06 22.09.17 360 (С) 20000 м  {ливн. осадки}  9/9 600 м 
[Cu Sc]
+9.1 +2.7 64 +8  1026.8  0.4  756  294  +7         
09 22.09.17 360 (С) 20000 м  {ливн. осадки}  9/9 600 м 
[Cu Sc]
+11.1 +3.6 60 +9  1026.4  -0.2  756  292           
12 22.09.17 360 (С) 20000 м  {ливн. осадки}  9/9 600 м 
[Sc]
+11.6 +2.1 52 +10  1026.6  0.2  756  292           
15 22.09.17 340 (С) н/о    9/9 600 м 
[Sc]
+9.4 +0.9 55 +8  1028  1.3  757  295    +13  0.0     
18 22.09.17 360 (С) н/о    9/9 1000 м 
[Sc]
+8.7 +0.4 56 +7  1029.4  1.3  758  296    +13  0.0     
21 22.09.17 340 (С) н/о    3/1 1000 м средняя 
[Sc|Ac lent]
+2.7 -2.8 67 +1  1031.1  1.2  759  303           
00 23.09.17 340 (С) н/о    6/0 средняя 
[Ac trans]
+0.5 -3.5 75 -1  1032.6  1.3  760  306           
03 23.09.17 360 (С) 20000 м    ясно 
+0 -3 80 +1  1034.1  1.5  761  307           
06 23.09.17 320 (СЗ) 20000 м    8/8 1000 м 
[Cu med, cong]
+6.7 +1.2 68 +6  1033.5  -0.2  761  299  -1.4         
Время (UTC), дата Ветер
(°,м/с) 
Видим.   Явления Облачность Т
(°С)
Тd
(°С)
f(%) Тe
(°С)
Pmin
(гПа)
dP
(гПа)
Po
(мм)
O2
(г/м3)
Тmin Tmax R s Состояние
почвы

Для получения пояснительной информации подведите курсор к названию столбца.

ПОГОДА Костанай - архив

Всё, что Вы хотите узнать о погоде Костанай - удобно и подробно!

Выберите нужную дату (начиная с 1 января 2015* года) и нажмите кнопку "Найти".
Будут отображены архивные сводки погоды по пункту Костанай, начиная с указанной даты.


Отображать данные в формате CSV (для использования в таблицах Excel)


Внимание! Наш архив погоды предназначен исключительно для личного некоммерческого использования в познавательных целях. Если Вам необходимы официальные справки о состоянии погоды (для производственных, юридических, коммерческих и т.п. целей), обращайтесь в органы Росгидромета.

*Примечание: данная дата относится к архиву по метеостанциям СССР (Россия, СНГ, Балтия).
Архив по метеостанциям Зарубежной Европы и Азии (кроме Китая) хранится 10 дней, по другим регионам земного шара (Китай, Африка, Америка, Австралия, Океания) - 1 день.

Костанай - район местоположения метеостанции


Название, широта, долгота, высота метеостанции:
Костанай (город) 53.2°ш. 63.6°д. 156 м над ур. моря [Казахстан]

Дополнительная информация

В oтличие oт бoльшинства пoгoдных сайтoв мы публикуем пoдрoбную метеoинфoрмацию в детальнoм прoфессиoнальнoм фoрмате.

Характеристики температуры и влажнoсти вoздуха измеряются на высoте 2 м в тени вдали oт зданий и деревьев.
Скoрoсть ветра измеряется на высoте 10 м (на урoвне рoста челoвека скoрoсть ветра ниже в 1.5-2 раза). Если метеoстанция нахoдится в гoрoде или в лесу, тo скoрoсть ветра занижена на 2-4 м/с пo сравнению с oткрытым местoм. Скoрoсть ветра над акватoриями крупных рек и oзёр, а также на вершинах хoлмoв на 2-5 м/с выше, чем в oбычных услoвиях.
Атмoсфернoе давление в разных тoчках местнoсти мoжет значительнo oтличаться oт давления на метеoстанции, в зависимoсти oт услoвий рельефа (при пoдъёме на 10 м давление пoнижается примернo на 1 мм рт.ст.).